Location: Barrio Las Umbrías
(40.4173°N, 4.8685°W)
Time: 12:00:49
(UTC+00:00)

Cosmos 1943 - Pass Details

Date: 17 August 2022
Orbit: 833 x 850 km, 71.0° (Epoch: 27 September)

Event Time Altitude Azimuth Distance (km) Brightness Sun altitude
Rises 19:42:21 0° 337° (NNW) 3,394 7.1 -5.8°
Reaches altitude 10° 19:44:48 10° 338° (NNW) 2,458 6.3 -6.3°
Maximum altitude 19:50:27 82° 67° (ENE) 854 3.2 -7.2°
Drops below altitude 10° 19:56:06 10° 155° (SSE) 2,454 5.2 -8.2°
Enters shadow 19:58:03 - 156° (SSE) 3,199 5.7 -8.6°
